| time (UTC) | temp F | wind direction | speed MPH | gust MPH | rain 1hr in | rain 24hr in | rain mn in | humidity % | barometer mb |
| 20260831001522 | 77 | 202 | 9.0 | 20.0 | 0.00 | 0.00 | 0.00 | 83 | 1019.9 |
| 20260831000020 | 78 | 212 | 5.0 | 17.0 | 0.00 | 0.00 | 0.00 | 82 | 1020.0 |
| 20260830234528 | 78 | 219 | 11.0 | 18.0 | 0.00 | 0.00 | 0.00 | 81 | 1019.9 |
| 20260830233030 | 78 | 217 | 8.0 | 16.0 | 0.00 | 0.00 | 0.00 | 81 | 1020.0 |
| 20260830231531 | 79 | 225 | 6.0 | 16.0 | 0.00 | 0.00 | 0.00 | 79 | 1020.0 |
| 20260830230016 | 80 | 211 | 5.0 | 15.0 | 0.00 | 0.00 | 0.00 | 77 | 1020.0 |
| 20260830224520 | 80 | 204 | 6.0 | 14.0 | 0.00 | 0.00 | 0.00 | 77 | 1020.0 |
| 20260830223027 | 81 | 192 | 7.0 | 16.0 | 0.00 | 0.00 | 0.00 | 75 | 1020.0 |
| 20260830221528 | 80 | 216 | 8.0 | 18.0 | 0.00 | 0.00 | 0.00 | 76 | 1020.1 |
| 20260830220003 | 80 | 178 | 10.0 | 16.0 | 0.00 | 0.00 | 0.00 | 76 | 1020.1 |
| 20260830214508 | 80 | 180 | 8.0 | 18.0 | 0.00 | 0.00 | 0.00 | 75 | 1020.1 |
| 20260830213004 | 82 | 140 | 10.0 | 15.0 | 0.00 | 0.00 | 0.00 | 70 | 1020.1 |
| 20260830211503 | 83 | 200 | 8.0 | 16.0 | 0.00 | 0.00 | 0.00 | 68 | 1020.1 |
| 20260830210004 | 85 | 220 | 9.0 | 15.0 | 0.00 | 0.00 | 0.00 | 67 | 1020.1 |
| 20260830204504 | 85 | 200 | 9.0 | 16.0 | 0.00 | 0.00 | 0.00 | 67 | 1020.2 |
| 20260830203013 | 85 | 178 | 7.0 | 16.0 | 0.00 | 0.00 | 0.00 | 66 | 1020.3 |
| 20260830201504 | 85 | 200 | 7.0 | 15.0 | 0.00 | 0.00 | 0.00 | 65 | 1020.4 |
| 20260830200005 | 85 | 232 | 8.0 | 15.0 | 0.00 | 0.00 | 0.00 | 65 | 1020.5 |
| 20260830194504 | 84 | 234 | 8.0 | 18.0 | 0.00 | 0.00 | 0.00 | 66 | 1020.5 |
| 20260830193005 | 83 | 185 | 11.0 | 21.0 | 0.00 | 0.00 | 0.00 | 67 | 1020.6 |
| 20260830191506 | 84 | 201 | 11.0 | 18.0 | 0.00 | 0.00 | 0.00 | 65 | 1020.6 |
| 20260830190006 | 84 | 187 | 8.0 | 19.0 | 0.00 | 0.00 | 0.00 | 65 | 1021.1 |
| 20260830184508 | 83 | 172 | 10.0 | 19.0 | 0.00 | 0.00 | 0.00 | 65 | 1021.1 |
| 20260830183008 | 83 | 173 | 10.0 | 17.0 | 0.00 | 0.00 | 0.00 | 64 | 1021.3 |
| 20260830181508 | 83 | 148 | 10.0 | 19.0 | 0.00 | 0.00 | 0.00 | 67 | 1021.4 |
| 20260830180011 | 83 | 171 | 10.0 | 17.0 | 0.00 | 0.00 | 0.00 | 67 | 1021.6 |
| 20260830174507 | 83 | 204 | 9.0 | 16.0 | 0.00 | 0.00 | 0.00 | 67 | 1021.9 |
| 20260830173012 | 83 | 171 | 9.0 | 19.0 | 0.00 | 0.00 | 0.00 | 65 | 1022.0 |
| 20260830171510 | 83 | 160 | 8.0 | 16.0 | 0.00 | 0.00 | 0.00 | 64 | 1022.2 |
| 20260830170013 | 83 | 171 | 8.0 | 14.0 | 0.00 | 0.00 | 0.00 | 65 | 1022.5 |
| 20260830164514 | 82 | 190 | 9.0 | 16.0 | 0.00 | 0.00 | 0.00 | 65 | 1022.7 |
| 20260830163008 | 82 | 213 | 8.0 | 15.0 | 0.00 | 0.00 | 0.00 | 66 | 1022.7 |
| 20260830161518 | 82 | 159 | 8.0 | 16.0 | 0.00 | 0.00 | 0.00 | 65 | 1022.6 |
| 20260830160018 | 82 | 186 | 9.0 | 15.0 | 0.00 | 0.00 | 0.00 | 65 | 1022.6 |
| 20260830154515 | 82 | 192 | 7.0 | 15.0 | 0.00 | 0.00 | 0.00 | 63 | 1022.6 |
| 20260830153031 | 81 | 163 | 6.0 | 14.0 | 0.00 | 0.00 | 0.00 | 64 | 1022.6 |
| 20260830151507 | 81 | 219 | 4.0 | 11.0 | 0.00 | 0.00 | 0.00 | 63 | 1022.8 |
| 20260830150013 | 80 | 165 | 4.0 | 12.0 | 0.00 | 0.00 | 0.00 | 66 | 1022.9 |
| 20260830144517 | 80 | 205 | 5.0 | 11.0 | 0.00 | 0.00 | 0.00 | 64 | 1023.0 |
| 20260830143020 | 80 | 213 | 3.0 | 12.0 | 0.00 | 0.00 | 0.00 | 66 | 1023.0 |
| 20260830141520 | 79 | 170 | 3.0 | 10.0 | 0.00 | 0.00 | 0.00 | 66 | 1023.1 |
| 20260830140016 | 79 | 231 | 5.0 | 14.0 | 0.00 | 0.00 | 0.00 | 67 | 1023.4 |
| 20260830134520 | 79 | 228 | 4.0 | 10.0 | 0.00 | 0.00 | 0.00 | 67 | 1023.4 |
| 20260830133031 | 78 | 175 | 5.0 | 12.0 | 0.00 | 0.00 | 0.00 | 67 | 1023.5 |
| 20260830131536 | 78 | 210 | 5.0 | 11.0 | 0.00 | 0.00 | 0.00 | 67 | 1023.6 |
| 20260830130017 | 77 | 234 | 6.0 | 14.0 | 0.00 | 0.00 | 0.00 | 68 | 1023.7 |
| 20260830124517 | 76 | 195 | 6.0 | 13.0 | 0.00 | 0.00 | 0.00 | 70 | 1023.8 |
| 20260830123030 | 75 | 175 | 5.0 | 12.0 | 0.00 | 0.00 | 0.00 | 73 | 1023.9 |
| 20260830121523 | 74 | 163 | 4.0 | 11.0 | 0.00 | 0.00 | 0.00 | 73 | 1023.9 |
| 20260830120022 | 73 | 201 | 2.0 | 9.0 | 0.00 | 0.00 | 0.00 | 78 | 1023.9 |
| 20260830114522 | 72 | 232 | 1.0 | 3.0 | 0.00 | 0.00 | 0.00 | 81 | 1024.0 |
| 20260830113020 | 71 | 244 | 0.0 | 0.0 | 0.00 | 0.00 | 0.00 | 83 | 1023.9 |
| 20260830111524 | 70 | 244 | 0.0 | 0.0 | 0.00 | 0.00 | 0.00 | 83 | 1023.9 |
| 20260830110020 | 69 | 244 | 0.0 | 0.0 | 0.00 | 0.00 | 0.00 | 83 | 1023.8 |
| 20260830104525 | 69 | 244 | 0.0 | 0.0 | 0.00 | 0.00 | 0.00 | 82 | 1023.6 |
| 20260830103026 | 69 | 244 | 0.0 | 0.0 | 0.00 | 0.00 | 0.00 | 82 | 1023.6 |
| 20260830101526 | 69 | 244 | 0.0 | 0.0 | 0.00 | 0.00 | 0.00 | 83 | 1023.6 |
| 20260830100026 | 69 | 244 | 0.0 | 0.0 | 0.00 | 0.00 | 0.00 | 83 | 1023.6 |
| 20260830094529 | 69 | 244 | 0.0 | 0.0 | 0.00 | 0.00 | 0.00 | 83 | 1023.6 |
| 20260830093012 | 68 | 244 | 0.0 | 0.0 | 0.00 | 0.00 | 0.00 | 83 | 1023.7 |
| 20260830091535 | 68 | 244 | 0.0 | 0.0 | 0.00 | 0.00 | 0.00 | 84 | 1023.7 |
| 20260830090023 | 69 | 244 | 0.0 | 0.0 | 0.00 | 0.00 | 0.00 | 84 | 1023.7 |
| 20260830084530 | 69 | 244 | 0.0 | 0.0 | 0.00 | 0.00 | 0.00 | 85 | 1023.6 |
| 20260830083008 | 69 | 244 | 0.0 | 0.0 | 0.00 | 0.00 | 0.00 | 85 | 1023.5 |
| 20260830081517 | 69 | 244 | 0.0 | 2.0 | 0.00 | 0.00 | 0.00 | 85 | 1023.6 |
| 20260830080020 | 69 | 243 | 0.0 | 0.0 | 0.00 | 0.00 | 0.00 | 84 | 1023.7 |
| 20260830074527 | 69 | 243 | 0.0 | 0.0 | 0.00 | 0.00 | 0.00 | 84 | 1023.7 |
| 20260830073028 | 68 | 242 | 0.0 | 0.0 | 0.00 | 0.00 | 0.00 | 83 | 1023.6 |
| 20260830071510 | 69 | 242 | 0.0 | 0.0 | 0.00 | 0.00 | 0.00 | 83 | 1023.7 |
| 20260830070016 | 69 | 242 | 0.0 | 0.0 | 0.00 | 0.00 | 0.00 | 82 | 1023.8 |
| 20260830064526 | 69 | 242 | 0.0 | 0.0 | 0.00 | 0.00 | 0.00 | 82 | 1023.9 |
| 20260830063030 | 69 | 242 | 0.0 | 3.0 | 0.00 | 0.00 | 0.00 | 82 | 1024.0 |
| 20260830061533 | 69 | 243 | 0.0 | 4.0 | 0.00 | 0.00 | 0.00 | 81 | 1024.2 |
| 20260830060013 | 70 | 242 | 1.0 | 4.0 | 0.00 | 0.00 | 0.00 | 81 | 1024.3 |
| 20260830054522 | 70 | 237 | 1.0 | 4.0 | 0.00 | 0.00 | 0.00 | 82 | 1024.2 |
| 20260830053025 | 70 | 234 | 1.0 | 3.0 | 0.00 | 0.00 | 0.00 | 81 | 1024.2 |
| 20260830051529 | 70 | 234 | 0.0 | 4.0 | 0.00 | 0.00 | 0.00 | 81 | 1024.2 |
| 20260830050033 | 70 | 219 | 1.0 | 4.0 | 0.00 | 0.00 | 0.00 | 81 | 1024.1 |
| 20260830044543 | 71 | 202 | 1.0 | 2.0 | 0.00 | 0.00 | 0.00 | 80 | 1024.1 |
| 20260830043022 | 71 | 202 | 1.0 | 3.0 | 0.00 | 0.00 | 0.00 | 79 | 1023.8 |
| 20260830041543 | 71 | 199 | 1.0 | 4.0 | 0.00 | 0.00 | 0.00 | 78 | 1023.8 |
| 20260830040029 | 71 | 200 | 3.0 | 5.0 | 0.00 | 0.00 | 0.00 | 78 | 1023.7 |
| 20260830034532 | 71 | 188 | 1.0 | 4.0 | 0.00 | 0.00 | 0.00 | 78 | 1023.6 |
| 20260830033032 | 71 | 186 | 0.0 | 5.0 | 0.00 | 0.00 | 0.00 | 77 | 1023.7 |
| 20260830031524 | 71 | 204 | 2.0 | 4.0 | 0.00 | 0.00 | 0.00 | 77 | 1023.7 |
| 20260830030029 | 71 | 186 | 1.0 | 5.0 | 0.00 | 0.00 | 0.00 | 78 | 1023.8 |
| 20260830024530 | 71 | 169 | 3.0 | 6.0 | 0.00 | 0.00 | 0.00 | 77 | 1023.7 |
| 20260830023031 | 71 | 163 | 2.0 | 5.0 | 0.00 | 0.00 | 0.00 | 77 | 1023.6 |
| 20260830021519 | 72 | 193 | 0.0 | 2.0 | 0.00 | 0.00 | 0.00 | 76 | 1023.7 |
| 20260830020031 | 72 | 192 | 1.0 | 4.0 | 0.00 | 0.00 | 0.00 | 76 | 1023.8 |
| 20260830014508 | 72 | 188 | 1.0 | 5.0 | 0.00 | 0.00 | 0.00 | 75 | 1023.5 |
| 20260830013011 | 72 | 181 | 1.0 | 5.0 | 0.00 | 0.00 | 0.00 | 75 | 1023.4 |
| 20260830011518 | 72 | 189 | 3.0 | 7.0 | 0.00 | 0.00 | 0.00 | 74 | 1023.4 |
| 20260830010026 | 72 | 183 | 3.0 | 5.0 | 0.00 | 0.00 | 0.00 | 74 | 1023.5 |
| 20260830004527 | 72 | 201 | 1.0 | 4.0 | 0.00 | 0.00 | 0.00 | 72 | 1023.6 |
| 20260830003010 | 73 | 202 | 2.0 | 5.0 | 0.00 | 0.00 | 0.00 | 71 | 1023.4 |